"Period start","avg(HW err(1)/warn(2) (#))","avg(Visibility (m))","avg(Weather code (#))","avg(Precip intensity (mm/h))","min(HW err(1)/warn(2) (#))","max(HW err(1)/warn(2) (#))","std(HW err(1)/warn(2) (#))","med(HW err(1)/warn(2) (#))","min(Visibility (m))","max(Visibility (m))","std(Visibility (m))","med(Visibility (m))","min(Weather code (#))","max(Weather code (#))","std(Weather code (#))","med(Weather code (#))","min(Precip intensity (mm/h))","max(Precip intensity (mm/h))","std(Precip intensity (mm/h))","med(Precip intensity (mm/h))"
2013-07-21 00:00:00,2,48957,0,0.00,2,2,0,2,44307,50000,1760,49852,0,0,0,0,0.00,0.00,0.00,0.00
2013-07-21 00:10:00,2,47727,0,0.00,2,2,0,2,43368,50000,2331,48104,0,0,0,0,0.00,0.00,0.00,0.00
2013-07-21 00:20:00,2,49720,0,0.00,2,2,0,2,48611,50000,463,50000,0,0,0,0,0.00,0.00,0.00,0.00
2013-07-21 00:30:00,2,48426,0,0.00,2,2,0,2,42973,50000,2698,50000,0,0,0,0,0.00,0.00,0.00,0.00
2013-07-21 00:40:00,2,46377,0,0.00,2,2,0,2,37311,50000,4416,48965,0,0,0,0,0.00,0.00,0.00,0.00
2013-07-21 00:50:00,2,40813,0,0.00,2,2,0,2,29608,50000,6238,41320,0,0,0,0,0.00,0.00,0.00,0.00
2013-07-21 01:00:00,2,25610,12,0.01,2,2,0,2,8542,48489,13664,22428,0,61,24,0,0.00,0.15,0.05,0.00
2013-07-21 01:10:00,2,29224,10,0.00,2,2,0,2,13370,45638,9172,31440,0,51,20,0,0.00,0.00,0.00,0.00
2013-07-21 01:20:00,2,45902,0,0.00,2,2,0,2,35844,50000,5465,49170,0,0,0,0,0.00,0.00,0.00,0.00
2013-07-21 01:30:00,2,18436,17,0.01,2,2,0,2,8764,28112,7491,19468,0,61,27,0,0.00,0.15,0.05,0.00
2013-07-21 01:40:00,2,42960,0,0.00,2,2,0,2,27998,50000,7520,45982,0,0,0,0,0.00,0.00,0.00,0.00
2013-07-21 01:50:00,2,46303,0,0.00,2,2,0,2,40823,50000,2994,46565,0,0,0,0,0.00,0.00,0.00,0.00
2013-07-21 02:00:00,2,34345,0,0.00,2,2,0,2,10562,50000,13770,38590,0,0,0,0,0.00,0.00,0.00,0.00
2013-07-21 02:10:00,2,47314,0,0.00,2,2,0,2,43560,50000,2218,46752,0,0,0,0,0.00,0.00,0.00,0.00
2013-07-21 02:20:00,2,18039,0,0.00,2,2,0,2,5156,36134,10955,15120,0,0,0,0,0.00,0.00,0.00,0.00
2013-07-21 02:30:00,2,14354,28,0.03,2,2,0,2,6377,30336,7460,12056,0,61,27,30,0.00,0.15,0.06,0.00
2013-07-21 02:40:00,2,11535,43,0.69,2,2,0,2,5079,23190,5213,9538,0,61,22,52,0.00,1.95,0.67,0.48
2013-07-21 02:50:00,2,33641,0,0.00,2,2,0,2,13104,50000,10975,34044,0,0,0,0,0.00,0.00,0.00,0.00
2013-07-21 03:00:00,2,43707,0,0.00,2,2,0,2,32717,50000,6105,45054,0,0,0,0,0.00,0.00,0.00,0.00
2013-07-21 03:10:00,2,47001,0,0.00,2,2,0,2,41718,50000,3446,48661,0,0,0,0,0.00,0.00,0.00,0.00
2013-07-21 03:20:00,2,49293,0,0.00,2,2,0,2,43729,50000,1870,50000,0,0,0,0,0.00,0.00,0.00,0.00
2013-07-21 03:30:00,2,47142,0,0.00,2,2,0,2,42855,50000,2639,47012,0,0,0,0,0.00,0.00,0.00,0.00
2013-07-21 03:40:00,2,48122,0,0.00,2,2,0,2,38699,50000,3323,49624,0,0,0,0,0.00,0.00,0.00,0.00
2013-07-21 03:50:00,2,50000,0,0.00,2,2,0,2,50000,50000,0,50000,0,0,0,0,0.00,0.00,0.00,0.00
2013-07-21 04:00:00,2,49125,0,0.00,2,2,0,2,43624,50000,1903,50000,0,0,0,0,0.00,0.00,0.00,0.00
2013-07-21 04:10:00,2,49957,0,0.00,2,2,0,2,49567,50000,130,50000,0,0,0,0,0.00,0.00,0.00,0.00
2013-07-21 04:20:00,2,49235,0,0.00,2,2,0,2,46720,50000,1282,50000,0,0,0,0,0.00,0.00,0.00,0.00
2013-07-21 04:30:00,2,44065,0,0.00,2,2,0,2,31732,50000,6536,46845,0,0,0,0,0.00,0.00,0.00,0.00
2013-07-21 04:40:00,2,41338,0,0.00,2,2,0,2,34065,50000,5949,40170,0,0,0,0,0.00,0.00,0.00,0.00
2013-07-21 04:50:00,2,47380,0,0.00,2,2,0,2,38384,50000,4177,50000,0,0,0,0,0.00,0.00,0.00,0.00
2013-07-21 05:00:00,2,46875,0,0.00,2,2,0,2,39157,50000,3309,47458,0,0,0,0,0.00,0.00,0.00,0.00
2013-07-21 05:10:00,2,48904,0,0.00,2,2,0,2,45673,50000,1737,50000,0,0,0,0,0.00,0.00,0.00,0.00
2013-07-21 05:20:00,2,49658,0,0.00,2,2,0,2,48242,50000,685,50000,0,0,0,0,0.00,0.00,0.00,0.00
2013-07-21 05:30:00,2,50000,0,0.00,2,2,0,2,50000,50000,0,50000,0,0,0,0,0.00,0.00,0.00,0.00
2013-07-21 05:40:00,2,48462,0,0.00,2,2,0,2,42903,50000,2253,49600,0,0,0,0,0.00,0.00,0.00,0.00
2013-07-21 05:50:00,2,49894,0,0.00,2,2,0,2,48943,50000,317,50000,0,0,0,0,0.00,0.00,0.00,0.00
2013-07-21 06:00:00,2,48060,0,0.00,2,2,0,2,43391,50000,2413,49377,0,0,0,0,0.00,0.00,0.00,0.00
2013-07-21 06:10:00,2,49283,0,0.00,2,2,0,2,44108,50000,1738,50000,0,0,0,0,0.00,0.00,0.00,0.00
2013-07-21 06:20:00,2,47714,0,0.00,2,2,0,2,44240,50000,2095,48372,0,0,0,0,0.00,0.00,0.00,0.00
2013-07-21 06:30:00,2,45801,0,0.00,2,2,0,2,41199,50000,3167,44800,0,0,0,0,0.00,0.00,0.00,0.00
2013-07-21 06:40:00,2,48640,0,0.00,2,2,0,2,40727,50000,2724,50000,0,0,0,0,0.00,0.00,0.00,0.00
2013-07-21 06:50:00,2,48922,0,0.00,2,2,0,2,43662,50000,2008,50000,0,0,0,0,0.00,0.00,0.00,0.00
2013-07-21 07:00:00,2,49733,0,0.00,2,2,0,2,47333,50000,800,50000,0,0,0,0,0.00,0.00,0.00,0.00
2013-07-21 07:10:00,2,49622,0,0.00,2,2,0,2,48128,50000,695,50000,0,0,0,0,0.00,0.00,0.00,0.00
2013-07-21 07:20:00,2,48947,0,0.00,2,2,0,2,47456,50000,1031,49135,0,0,0,0,0.00,0.00,0.00,0.00
2013-07-21 07:30:00,2,46832,0,0.00,2,2,0,2,37230,50000,3760,47972,0,0,0,0,0.00,0.00,0.00,0.00
2013-07-21 07:40:00,2,48106,0,0.00,2,2,0,2,42632,50000,2440,49456,0,0,0,0,0.00,0.00,0.00,0.00
2013-07-21 07:50:00,2,50000,0,0.00,2,2,0,2,50000,50000,0,50000,0,0,0,0,0.00,0.00,0.00,0.00
2013-07-21 08:00:00,2,50000,0,0.00,2,2,0,2,50000,50000,0,50000,0,0,0,0,0.00,0.00,0.00,0.00
2013-07-21 08:10:00,2,49479,0,0.00,2,2,0,2,48384,50000,638,49873,0,0,0,0,0.00,0.00,0.00,0.00
2013-07-21 08:20:00,2,49007,0,0.00,2,2,0,2,42829,50000,2218,50000,0,0,0,0,0.00,0.00,0.00,0.00
2013-07-21 08:30:00,2,47986,0,0.00,2,2,0,2,41996,50000,2802,49843,0,0,0,0,0.00,0.00,0.00,0.00
2013-07-21 08:40:00,2,45420,0,0.00,2,2,0,2,39912,50000,3848,45918,0,0,0,0,0.00,0.00,0.00,0.00
2013-07-21 08:50:00,2,45336,0,0.00,2,2,0,2,38585,50000,3142,46046,0,0,0,0,0.00,0.00,0.00,0.00
2013-07-21 09:00:00,2,44836,0,0.00,2,2,0,2,36048,49075,3947,45487,0,0,0,0,0.00,0.00,0.00,0.00
2013-07-21 09:10:00,2,48002,0,0.00,2,2,0,2,44955,50000,1966,48477,0,0,0,0,0.00,0.00,0.00,0.00
2013-07-21 09:20:00,2,44068,0,0.00,2,2,0,2,36266,49397,3576,44294,0,0,0,0,0.00,0.00,0.00,0.00
2013-07-21 09:30:00,2,47865,0,0.00,2,2,0,2,42176,50000,2479,48532,0,0,0,0,0.00,0.00,0.00,0.00
2013-07-21 09:40:00,2,46185,0,0.00,2,2,0,2,42209,50000,2337,46618,0,0,0,0,0.00,0.00,0.00,0.00
2013-07-21 09:50:00,2,43169,0,0.00,2,2,0,2,36174,50000,5433,41952,0,0,0,0,0.00,0.00,0.00,0.00
2013-07-21 10:00:00,2,47580,0,0.00,2,2,0,2,40038,50000,3231,49002,0,0,0,0,0.00,0.00,0.00,0.00
2013-07-21 10:10:00,2,48312,0,0.00,2,2,0,2,43492,50000,2395,50000,0,0,0,0,0.00,0.00,0.00,0.00
2013-07-21 10:20:00,2,48026,0,0.00,2,2,0,2,44563,50000,1935,48820,0,0,0,0,0.00,0.00,0.00,0.00
2013-07-21 10:30:00,2,49911,0,0.00,2,2,0,2,49110,50000,267,50000,0,0,0,0,0.00,0.00,0.00,0.00
2013-07-21 10:40:00,2,50000,0,0.00,2,2,0,2,50000,50000,0,50000,0,0,0,0,0.00,0.00,0.00,0.00
2013-07-21 10:50:00,2,49962,0,0.00,2,2,0,2,49616,50000,115,50000,0,0,0,0,0.00,0.00,0.00,0.00
2013-07-21 11:00:00,2,49700,0,0.00,2,2,0,2,48414,50000,487,50000,0,0,0,0,0.00,0.00,0.00,0.00
2013-07-21 11:10:00,2,45384,0,0.00,2,2,0,2,39060,50000,4175,47212,0,0,0,0,0.00,0.00,0.00,0.00
2013-07-21 11:20:00,2,46885,0,0.00,2,2,0,2,39941,50000,3702,48896,0,0,0,0,0.00,0.00,0.00,0.00
2013-07-21 11:30:00,2,48816,0,0.00,2,2,0,2,45035,50000,1599,49797,0,0,0,0,0.00,0.00,0.00,0.00
2013-07-21 11:40:00,2,49730,0,0.00,2,2,0,2,47543,50000,733,50000,0,0,0,0,0.00,0.00,0.00,0.00
2013-07-21 11:50:00,2,49809,0,0.00,2,2,0,2,48087,50000,574,50000,0,0,0,0,0.00,0.00,0.00,0.00
2013-07-21 12:00:00,2,49813,0,0.00,2,2,0,2,48712,50000,390,50000,0,0,0,0,0.00,0.00,0.00,0.00
2013-07-21 12:10:00,2,49494,0,0.00,2,2,0,2,47258,50000,997,50000,0,0,0,0,0.00,0.00,0.00,0.00
2013-07-21 12:20:00,2,49451,0,0.00,2,2,0,2,46998,50000,1105,50000,0,0,0,0,0.00,0.00,0.00,0.00
2013-07-21 12:30:00,2,50000,0,0.00,2,2,0,2,50000,50000,0,50000,0,0,0,0,0.00,0.00,0.00,0.00
2013-07-21 12:40:00,2,49463,0,0.00,2,2,0,2,44925,50000,1515,50000,0,0,0,0,0.00,0.00,0.00,0.00
2013-07-21 12:50:00,2,48948,0,0.00,2,2,0,2,43372,50000,2184,50000,0,0,0,0,0.00,0.00,0.00,0.00
2013-07-21 13:00:00,2,49532,0,0.00,2,2,0,2,47899,50000,750,50000,0,0,0,0,0.00,0.00,0.00,0.00
2013-07-21 13:10:00,2,39152,0,0.00,2,2,0,2,24776,50000,10190,43158,0,0,0,0,0.00,0.00,0.00,0.00
2013-07-21 13:20:00,2,50000,0,0.00,2,2,0,2,50000,50000,0,50000,0,0,0,0,0.00,0.00,0.00,0.00
2013-07-21 13:30:00,2,49831,0,0.00,2,2,0,2,48310,50000,507,50000,0,0,0,0,0.00,0.00,0.00,0.00
2013-07-21 13:40:00,2,49842,0,0.00,2,2,0,2,48418,50000,475,50000,0,0,0,0,0.00,0.00,0.00,0.00
2013-07-21 13:50:00,2,48794,0,0.00,2,2,0,2,43488,50000,1930,49627,0,0,0,0,0.00,0.00,0.00,0.00
2013-07-21 14:00:00,2,49849,0,0.00,2,2,0,2,48950,50000,313,50000,0,0,0,0,0.00,0.00,0.00,0.00
2013-07-21 14:10:00,2,50000,0,0.00,2,2,0,2,50000,50000,0,50000,0,0,0,0,0.00,0.00,0.00,0.00
2013-07-21 14:20:00,2,50000,0,0.00,2,2,0,2,50000,50000,0,50000,0,0,0,0,0.00,0.00,0.00,0.00
2013-07-21 14:30:00,2,50000,0,0.00,2,2,0,2,50000,50000,0,50000,0,0,0,0,0.00,0.00,0.00,0.00
2013-07-21 14:40:00,2,49966,0,0.00,2,2,0,2,49663,50000,101,50000,0,0,0,0,0.00,0.00,0.00,0.00
2013-07-21 14:50:00,2,50000,0,0.00,2,2,0,2,50000,50000,0,50000,0,0,0,0,0.00,0.00,0.00,0.00
2013-07-21 15:00:00,2,50000,0,0.00,2,2,0,2,50000,50000,0,50000,0,0,0,0,0.00,0.00,0.00,0.00
2013-07-21 15:10:00,2,50000,0,0.00,2,2,0,2,50000,50000,0,50000,0,0,0,0,0.00,0.00,0.00,0.00
2013-07-21 15:20:00,2,50000,0,0.00,2,2,0,2,50000,50000,0,50000,0,0,0,0,0.00,0.00,0.00,0.00
2013-07-21 15:30:00,2,50000,0,0.00,2,2,0,2,50000,50000,0,50000,0,0,0,0,0.00,0.00,0.00,0.00
2013-07-21 15:40:00,2,50000,0,0.00,2,2,0,2,50000,50000,0,50000,0,0,0,0,0.00,0.00,0.00,0.00
2013-07-21 15:50:00,2,50000,0,0.00,2,2,0,2,50000,50000,0,50000,0,0,0,0,0.00,0.00,0.00,0.00
2013-07-21 16:00:00,2,50000,0,0.00,2,2,0,2,50000,50000,0,50000,0,0,0,0,0.00,0.00,0.00,0.00
2013-07-21 16:10:00,2,50000,0,0.00,2,2,0,2,50000,50000,0,50000,0,0,0,0,0.00,0.00,0.00,0.00
2013-07-21 16:20:00,2,50000,0,0.00,2,2,0,2,50000,50000,0,50000,0,0,0,0,0.00,0.00,0.00,0.00
2013-07-21 16:30:00,2,49936,0,0.00,2,2,0,2,49457,50000,162,50000,0,0,0,0,0.00,0.00,0.00,0.00
2013-07-21 16:40:00,2,50000,0,0.00,2,2,0,2,50000,50000,0,50000,0,0,0,0,0.00,0.00,0.00,0.00
2013-07-21 16:50:00,2,50000,0,0.00,2,2,0,2,50000,50000,0,50000,0,0,0,0,0.00,0.00,0.00,0.00
2013-07-21 17:00:00,2,39598,0,0.00,2,2,0,2,17698,50000,12798,49031,0,0,0,0,0.00,0.00,0.00,0.00
2013-07-21 17:10:00,2,47281,0,0.00,2,2,0,2,35726,50000,4955,50000,0,0,0,0,0.00,0.00,0.00,0.00
2013-07-21 17:20:00,2,50000,0,0.00,2,2,0,2,50000,50000,0,50000,0,0,0,0,0.00,0.00,0.00,0.00
2013-07-21 17:30:00,2,50000,0,0.00,2,2,0,2,50000,50000,0,50000,0,0,0,0,0.00,0.00,0.00,0.00
2013-07-21 17:40:00,2,50000,0,0.00,2,2,0,2,50000,50000,0,50000,0,0,0,0,0.00,0.00,0.00,0.00
2013-07-21 17:50:00,2,50000,0,0.00,2,2,0,2,50000,50000,0,50000,0,0,0,0,0.00,0.00,0.00,0.00
2013-07-21 18:00:00,2,50000,0,0.00,2,2,0,2,50000,50000,0,50000,0,0,0,0,0.00,0.00,0.00,0.00
2013-07-21 18:10:00,2,50000,0,0.00,2,2,0,2,50000,50000,0,50000,0,0,0,0,0.00,0.00,0.00,0.00
2013-07-21 18:20:00,2,50000,0,0.00,2,2,0,2,50000,50000,0,50000,0,0,0,0,0.00,0.00,0.00,0.00
2013-07-21 18:30:00,2,50000,0,0.00,2,2,0,2,50000,50000,0,50000,0,0,0,0,0.00,0.00,0.00,0.00
2013-07-21 18:40:00,2,49152,0,0.00,2,2,0,2,43695,50000,1880,50000,0,0,0,0,0.00,0.00,0.00,0.00
2013-07-21 18:50:00,2,50000,0,0.00,2,2,0,2,50000,50000,0,50000,0,0,0,0,0.00,0.00,0.00,0.00
2013-07-21 19:00:00,2,50000,0,0.00,2,2,0,2,50000,50000,0,50000,0,0,0,0,0.00,0.00,0.00,0.00
2013-07-21 19:10:00,2,50000,0,0.00,2,2,0,2,50000,50000,0,50000,0,0,0,0,0.00,0.00,0.00,0.00
2013-07-21 19:20:00,2,49971,0,0.00,2,2,0,2,49710,50000,87,50000,0,0,0,0,0.00,0.00,0.00,0.00
2013-07-21 19:30:00,2,50000,0,0.00,2,2,0,2,50000,50000,0,50000,0,0,0,0,0.00,0.00,0.00,0.00
2013-07-21 19:40:00,2,50000,0,0.00,2,2,0,2,50000,50000,0,50000,0,0,0,0,0.00,0.00,0.00,0.00
2013-07-21 19:50:00,2,50000,0,0.00,2,2,0,2,50000,50000,0,50000,0,0,0,0,0.00,0.00,0.00,0.00
2013-07-21 20:00:00,2,49931,0,0.00,2,2,0,2,49306,50000,208,50000,0,0,0,0,0.00,0.00,0.00,0.00
2013-07-21 20:10:00,2,49954,0,0.00,2,2,0,2,49539,50000,138,50000,0,0,0,0,0.00,0.00,0.00,0.00
2013-07-21 20:20:00,2,49589,4,0.00,2,2,0,2,46591,50000,1021,50000,0,40,12,0,0.00,0.00,0.00,0.00
2013-07-21 20:30:00,2,48087,34,0.16,2,2,0,2,39525,50000,3488,50000,0,61,29,50,0.00,0.80,0.29,0.00
2013-07-21 20:40:00,2,43816,57,0.81,2,2,0,2,25318,50000,9242,50000,51,61,5,61,0.00,2.70,0.87,0.33
2013-07-21 20:50:00,2,28174,61,0.86,2,2,0,2,21209,42320,6197,25253,61,61,0,61,0.15,3.50,1.06,0.30
2013-07-21 21:00:00,2,37299,61,0.32,2,2,0,2,21966,47614,8567,39306,61,61,0,61,0.00,1.50,0.42,0.15
2013-07-21 21:10:00,2,21787,61,2.05,2,2,0,2,8635,44853,13787,13286,61,61,0,61,0.60,4.95,1.38,1.85
2013-07-21 21:20:00,2,9172,61,4.05,2,2,0,2,5158,12336,1945,8848,61,62,0,61,0.20,11.05,3.14,3.67
2013-07-21 21:30:00,2,25913,61,1.20,2,2,0,2,8753,42923,13033,23960,61,61,0,61,0.05,5.30,1.46,0.90
2013-07-21 21:40:00,2,37392,61,0.76,2,2,0,2,24231,50000,7408,39266,61,61,0,61,0.05,1.95,0.58,0.65
2013-07-21 21:50:00,2,47956,40,0.12,2,2,0,2,38261,50000,3667,50000,0,61,26,51,0.00,0.50,0.17,0.03
2013-07-21 22:00:00,2,48648,52,0.15,2,2,0,2,41255,50000,2677,50000,51,61,3,51,0.00,0.55,0.18,0.05
2013-07-21 22:10:00,2,49565,45,0.07,2,2,0,2,47628,50000,875,50000,0,61,23,51,0.00,0.25,0.08,0.03
2013-07-21 22:20:00,2,49335,26,0.04,2,2,0,2,46614,50000,1259,50000,0,51,26,26,0.00,0.20,0.07,0.00
2013-07-21 22:30:00,2,49368,0,0.00,2,2,0,2,47428,50000,982,50000,0,0,0,0,0.00,0.00,0.00,0.00
2013-07-21 22:40:00,2,48796,24,0.06,2,2,0,2,45405,50000,1659,50000,0,61,30,0,0.00,0.45,0.14,0.00
2013-07-21 22:50:00,2,48653,33,0.03,2,2,0,2,45810,50000,1540,49580,0,51,22,41,0.00,0.10,0.03,0.03
2013-07-21 23:00:00,2,50000,0,0.00,2,2,0,2,50000,50000,0,50000,0,0,0,0,0.00,0.00,0.00,0.00
2013-07-21 23:10:00,2,47972,0,0.00,2,2,0,2,42602,50000,2426,49080,0,0,0,0,0.00,0.00,0.00,0.00
2013-07-21 23:20:00,2,49893,0,0.00,2,2,0,2,49450,50000,214,50000,0,0,0,0,0.00,0.00,0.00,0.00
2013-07-21 23:30:00,2,48002,0,0.00,2,2,0,2,41843,50000,3085,50000,0,0,0,0,0.00,0.00,0.00,0.00
2013-07-21 23:40:00,2,48019,0,0.00,2,2,0,2,39064,50000,3535,50000,0,0,0,0,0.00,0.00,0.00,0.00
2013-07-21 23:50:00,2,49453,0,0.00,2,2,0,2,44526,50000,1642,50000,0,0,0,0,0.00,0.00,0.00,0.00
